CW6344 Weather Reports


time (UTC)temp
C
wind
direction
speed
KPH
gust
KPH
rain 1hr
cm
rain 24hr
cm
rain mn
cm
humidity
%
barometer
mb
20200531065421 20 299 4.8 6.4 0.00 0.00 0.00 65 1015.4
20200531064421 20 329 0.0 9.7 0.00 0.00 0.00 65 1015.3
20200531060420 19 303 3.2 4.8 0.00 0.00 0.00 70 1015.0
20200531052420 19 32 0.0 3.2 0.00 0.00 0.00 71 1014.9
20200531051420 19 36 0.0 1.6 0.00 0.00 0.00 74 1014.9
20200531045419 18 294 0.0 3.2 0.00 0.00 0.00 80 1014.8
20200531044419 18 242 0.0 1.6 0.00 0.00 0.00 82 1014.7
20200531042419 17 203 0.0 1.6 0.00 0.00 0.00 86 1014.5
20200531041419 17 116 0.0 0.0 0.00 0.00 0.00 88 1014.3
20200531040419 17 116 0.0 0.0 0.00 0.00 0.00 88 1014.4
20200531035419 17 116 0.0 0.0 0.00 0.00 0.00 89 1014.4
20200531034419 17 116 0.0 0.0 0.00 0.00 0.00 88 1014.3
20200531033418 17 116 0.0 1.6 0.00 0.00 0.00 87 1014.3
20200531032418 17 116 0.0 1.6 0.00 0.00 0.00 86 1014.3
20200531031419 18 116 0.0 0.0 0.00 0.00 0.00 86 1014.2
20200531030418 18 116 0.0 0.0 0.00 0.00 0.00 85 1014.1
20200531025418 18 116 0.0 0.0 0.00 0.00 0.00 85 1014.2
20200531024418 18 116 0.0 0.0 0.00 0.00 0.00 85 1014.2
20200531021418 18 116 0.0 3.2 0.00 0.00 0.00 83 1014.4
20200531015417 19 116 0.0 0.0 0.00 0.00 0.00 81 1014.1
20200531011416 20 116 0.0 0.0 0.00 0.00 0.00 78 1013.8
20200531004417 21 116 0.0 0.0 0.00 0.00 0.00 74 1013.6
20200531002416 22 116 0.0 0.0 0.00 0.00 0.00 72 1013.3
20200531001416 22 116 0.0 0.0 0.00 0.00 0.00 70 1013.3
20200531000416 23 116 0.0 0.0 0.00 0.00 0.00 68 1013.2
20200530231415 23 116 0.0 0.0 0.00 0.00 0.00 64 1012.9
20200530230415 23 116 0.0 0.0 0.00 0.00 0.00 63 1012.9
20200530225415 24 116 0.0 0.0 0.00 0.00 0.00 63 1012.9
20200530224415 24 116 0.0 0.0 0.00 0.00 0.00 64 1012.8
20200530223415 24 116 0.0 0.0 0.00 0.00 0.00 62 1012.6
20200530222415 25 116 0.0 0.0 0.00 0.00 0.00 61 1012.5
20200530215415 25 116 0.0 1.6 0.00 0.00 0.00 61 1012.5
20200530214414 26 86 0.0 0.0 0.00 0.00 0.00 59 1012.5
20200530213415 25 86 0.0 0.0 0.00 0.00 0.00 62 1012.5
20200530212414 25 86 0.0 1.6 0.00 0.00 0.00 58 1012.6
20200530205413 26 87 0.0 3.2 0.00 0.00 0.00 59 1013.0
20200530204413 26 150 0.0 3.2 0.00 0.00 0.00 64 1013.1
20200530201413 26 261 1.6 4.8 0.00 0.00 0.00 52 1013.1
20200530195413 26 76 0.0 1.6 0.00 0.00 0.00 67 1012.9
20200530194412 26 69 1.6 3.2 0.00 0.00 0.00 67 1012.8
20200530193413 26 59 1.6 3.2 0.00 0.03 0.00 60 1012.9
20200530192412 26 355 0.0 1.6 0.00 0.03 0.00 58 1013.0
20200530191412 26 330 0.0 4.8 0.00 0.03 0.00 59 1013.0
20200530183412 26 300 0.0 1.6 0.00 0.03 0.00 59 1013.4
20200530182412 25 304 0.0 1.6 0.00 0.03 0.00 70 1013.5
20200530180412 25 149 1.6 9.7 0.00 0.03 0.00 61 1013.6
20200530175411 25 268 1.6 1.6 0.00 0.03 0.00 66 1013.6
20200530174411 25 360 4.8 4.8 0.00 0.03 0.00 67 1013.6
20200530172411 25 330 4.8 4.8 0.00 0.03 0.00 63 1013.6
20200530171411 25 52 0.0 4.8 0.00 0.03 0.00 63 1013.5
20200530170411 25 109 1.6 1.6 0.00 0.03 0.00 69 1013.6
20200530163410 25 300 4.8 4.8 0.00 0.03 0.00 66 1013.7
20200530162410 25 104 3.2 6.4 0.00 0.03 0.00 65 1013.7
20200530161410 25 327 3.2 3.2 0.00 0.03 0.00 67 1013.6
20200530155410 25 292 3.2 4.8 0.00 0.03 0.00 71 1013.7
20200530153410 25 216 3.2 6.4 0.00 0.03 0.00 69 1013.9
20200530152409 25 9 1.6 4.8 0.00 0.03 0.00 70 1014.1
20200530151409 25 348 1.6 6.4 0.00 0.03 0.00 70 1014.1
20200530144409 24 273 0.0 4.8 0.00 0.03 0.00 71 1014.3
20200530143409 24 345 0.0 6.4 0.00 0.03 0.00 74 1014.3
20200530142409 23 68 3.2 4.8 0.00 0.03 0.00 73 1014.4
20200530141409 23 319 4.8 6.4 0.00 0.03 0.00 73 1014.4
20200530140409 23 327 0.0 3.2 0.00 0.03 0.00 77 1014.4
20200530133408 22 311 1.6 4.8 0.00 0.03 0.00 80 1014.6
20200530132409 22 288 0.0 3.2 0.00 0.03 0.00 81 1014.7
20200530131408 22 278 0.0 3.2 0.00 0.03 0.00 82 1014.7
20200530130408 22 297 3.2 4.8 0.00 0.03 0.00 83 1014.7
20200530125408 22 5 0.0 0.0 0.00 0.03 0.00 82 1014.5
20200530124407 22 261 0.0 1.6 0.00 0.03 0.00 82 1014.6
20200530123407 22 175 4.8 4.8 0.00 0.03 0.00 85 1014.5
20200530122407 22 53 1.6 3.2 0.00 0.03 0.00 86 1014.4
20200530121407 21 248 0.0 3.2 0.00 0.03 0.00 90 1014.4
20200530120407 21 252 0.0 3.2 0.00 0.03 0.00 93 1014.4
20200530115407 21 215 0.0 0.0 0.00 0.03 0.00 93 1014.3
20200530113407 21 215 0.0 0.0 0.00 0.03 0.00 94 1014.1
20200530112407 21 215 0.0 0.0 0.00 0.03 0.00 94 1014.1
20200530105406 21 295 0.0 0.0 0.00 0.03 0.00 94 1013.9
20200530104406 21 262 0.0 1.6 0.00 0.03 0.00 94 1013.9
20200530101407 21 272 0.0 0.0 0.00 0.03 0.00 94 1013.7
20200530100405 21 290 0.0 0.0 0.00 0.03 0.00 94 1013.6
20200530095405 21 289 0.0 1.6 0.00 0.03 0.00 93 1013.4
20200530090405 21 277 0.0 6.4 0.00 0.03 0.00 94 1013.1
20200530083405 21 311 4.8 4.8 0.00 0.03 0.00 94 1012.9
20200530080404 21 262 0.0 4.8 0.00 0.03 0.00 95 1012.7
20200530073405 22 229 0.0 0.0 0.00 0.03 0.00 96 1012.6
20200530072404 22 228 0.0 4.8 0.00 0.03 0.00 96 1012.9